Regional Weather Roundup
Issued by NWS

Home | Current Version | Previous Version | Graphics & Text | Print | Product List | Glossary On
Versions: 1 2 3 4 5 6 7 8 9 10 11 12 13 14 15 16 17 18 19 20 21 22 23 24 25 26 27 28 29 30 31 32 33 34 35 36 37 38 39 40 41 42 43 44 45 46 47 48 49 50
000
ASUS43 KLMK 211602
RWRKY
KENTUCKY REGIONAL WEATHER ROUNDUP
NATIONAL WEATHER SERVICE LOUISVILLE KY
1200 PM EDT WED JUN 21 2017

NOTE "FAIR" INDICATES FEW OR NO CLOUDS BELOW 12,000 FEET
WITH NO SIGNIFICANT WEATHER AND/OR OBSTRUCTIONS TO VISIBILITY.

KYZ001>023-026-027-061>063-070>075-211700-
WESTERN AND SOUTH CENTRAL KENTUCKY

CITY           SKY/WX    TMP DP  RH WIND       PRES   REMARKS
PADUCAH        CLOUDY    84  67  56 SW6       30.01R
HENDERSON      MOSUNNY   86  66  51 MISG      30.00S
OWENSBORO      SUNNY     87  66  49 SW12      30.01S
HOPKINSVILLE   CLOUDY    84  67  58 SW8       30.04R
BOWLING GREEN  SUNNY     83  67  58 SW9       30.05S
GLASGOW        NOT AVBL
$$

KYZ024-025-028>034-038-045-046-053-211700-
NORTH CENTRAL KENTUCKY

CITY           SKY/WX    TMP DP  RH WIND       PRES   REMARKS
LOUISVILLE/SDF MOSUNNY   88  62  41 SW10G17   30.00S
LOUISVILLE/LOU SUNNY     87  64  46 S9        30.01R
FORT KNOX      SUNNY     85  64  50 SW10      30.02R
$$

KYZ035>037-039>044-047>052-055>060-089>105-211700-
NORTHEAST KENTUCKY

CITY           SKY/WX    TMP DP  RH WIND       PRES   REMARKS
LEXINGTON      SUNNY     85  61  44 SW13      30.05R
COVINGTON      SUNNY     82  63  52 SW13G20   29.99F
FRANKFORT      MOSUNNY   84  65  52 SW7       30.02S
$$

KYZ054-064>069-076>088-106>120-211700-
SOUTHEAST KENTUCKY

CITY           SKY/WX    TMP DP  RH WIND       PRES   REMARKS
JACKSON        SUNNY     81  66  60 VRB3      30.09S
LONDON         CLOUDY    81  63  54 S9        30.08F
SOMERSET       SUNNY     79  63  57 S6        30.09S
MIDDLESBORO    CLOUDY    78  67  69 SE5       30.11F
MONTICELLO     CLOUDY    83  68  60 VRB7G21   30.09F
$$





USA.gov is the U.S. government's official web portal to all federal, state and local government web resources and services.